Lapse_Rate
0.3 -0.7 -0.3 -1.0 -0.9 -0.0 -1.1 -1.3 -0.8 -0.3 4.3 2.9 2.2 2.5 2.7 2.4 2.5 1.0 0.4 -0.1 0.5 0.4
-0.6 -0.6 -1.0 -1.5 -0.5 -0.9 -0.2 -2.0 -1.0 -0.8 2.0 4.3 3.0 2.9 2.5 2.6 1.8 1.0 0.4 0.4 0.9 0.9
-0.4 -0.6 -0.5 -1.3 -1.1 -0.5 -0.6 -1.1 -2.8 -1.3 2.1 4.5 3.8 2.9 2.9 2.7 1.9 1.1 0.8 0.3 0.4 1.0
-0.5 -0.6 -0.7 -1.1 -1.0 -0.9 -1.0 -0.8 -0.9 -0.7 0.9 4.7 4.5 3.2 3.2 3.1 1.7 1.6 0.7 0.9 1.1 0.7
-0.4 -0.6 -1.0 -1.3 -1.4 -1.1 -0.8 -0.8 -0.8 -1.4 -0.2 4.2 4.9 4.1 3.4 2.9 2.2 1.9 1.2 0.7 1.3 0.1
-1.2 -1.3 -1.3 -1.2 -1.2 -1.2 -0.4 -0.0 -0.7 -0.2 0.4 3.8 4.7 4.5 4.2 2.9 2.1 1.7 1.7 1.2 0.7 0.2
-0.8 -1.0 -1.0 -0.8 -1.1 -0.9 -0.5 0.1 -0.3 0.3 0.8 2.6 3.9 4.1 3.9 3.6 2.5 2.5 2.3 1.3 1.5 0.4
-0.8 -0.7 -0.8 -0.7 -1.0 -0.8 -0.6 -0.2 0.1 0.9 1.8 2.2 2.6 3.9 3.6 3.4 3.1 2.2 1.8 1.4 0.8 0.1
-0.7 -0.9 -1.0 -0.9 -0.7 -0.4 -0.3 -0.1 0.3 0.9 2.0 2.3 2.9 4.7 4.3 3.3 2.2 1.3 0.5 0.5 0.1 0.0
-1.0 -0.8 -0.8 -0.7 -0.2 -0.2 -0.1 0.6 0.9 1.5 2.7 3.0 2.6 4.3 5.9 5.1 2.8 1.9 1.3 0.4 0.0 -0.2
-0.9 -0.7 -0.2 -0.3 -0.1 -0.1 0.3 1.3 2.4 2.3 3.1 3.8 2.9 4.0 6.2 5.5 1.7 1.7 1.6 0.9 0.5 0.4
-0.4 -0.4 -0.2 0.5 0.0 0.6 1.3 1.9 2.9 2.9 3.3 4.1 3.6 3.9 5.4 3.4 2.5 1.7 1.3 0.9 0.6 0.5
0.3 0.3 0.3 1.2 0.3 0.9 2.3 3.3 3.3 3.3 3.5 4.4 4.3 5.1 5.8 4.1 2.5 2.6 1.9 1.4 1.4 2.3
1.0 0.7 1.8 1.0 1.4 1.1 1.9 3.4 3.1 3.0 3.8 4.1 4.5 5.0 6.2 5.2 3.7 3.4 3.0 2.4 2.1 2.8
Wind_Speed
14 9 9 11 11 10 11 11 15 12 8 12 13 12 11 8 8 8 9 13 10 6
15 15 14 15 12 10 14 12 14 13 14 9 14 14 14 9 10 11 10 11 10 8
16 15 15 14 14 15 14 16 16 13 14 7 12 14 15 11 11 12 9 9 12 10
16 17 16 13 14 14 16 15 16 12 12 10 11 13 14 13 14 13 12 12 13 12
16 16 15 15 16 16 16 16 16 15 13 11 9 12 14 12 14 15 15 14 14 13
16 16 17 17 16 17 16 15 14 14 13 9 6 10 12 14 15 14 15 16 15 13
15 16 16 17 16 16 16 15 13 13 14 10 6 4 7 11 13 14 13 14 15 16
16 15 16 16 16 16 17 14 14 13 12 10 5 3 6 8 11 12 12 12 13 13
15 16 16 17 16 15 16 16 14 13 12 7 4 8 9 9 8 9 11 11 11 11
14 15 16 16 16 17 16 15 14 14 12 8 6 8 12 16 7 9 9 10 10 9
14 15 15 16 16 16 14 15 12 14 13 7 5 10 11 13 6 6 8 11 12 12
12 14 15 16 17 15 15 15 15 13 12 10 4 9 11 9 5 5 6 8 10 12
12 12 14 15 16 16 14 14 12 13 11 17 10 7 8 7 3 6 5 6 8 20
12 12 12 13 12 14 15 13 14 15 13 14 15 9 5 4 1 3 6 7 7 7
Wind_Direction
328 329 313 322 322 302 315 309 309 313 257 189 175 173 171 173 163 154 146 145 145 128
330 331 325 324 311 325 309 314 306 305 287 205 182 173 172 170 160 156 149 148 142 145
325 328 322 326 328 311 313 308 315 310 290 220 188 176 174 174 162 159 153 153 146 144
327 329 325 324 318 324 315 317 308 301 311 259 190 179 179 172 162 160 156 156 159 151
325 326 328 326 326 321 323 317 316 317 313 268 205 181 179 165 168 165 166 167 163 157
328 335 328 322 324 329 320 314 322 322 314 271 236 184 181 166 169 170 172 171 164 169
329 325 322 322 329 322 317 317 333 320 310 298 279 204 179 169 170 174 175 174 175 170
325 325 325 327 331 327 321 323 327 321 317 312 279 240 160 159 167 167 168 173 173 176
330 332 331 329 327 328 325 327 330 328 315 312 295 253 195 157 160 151 159 163 169 169
334 330 329 330 331 331 328 326 336 326 319 325 304 288 225 181 163 157 164 159 160 163
332 331 330 330 333 327 330 332 343 329 330 319 299 289 263 169 135 149 166 164 168 167
330 328 330 334 331 335 335 337 348 332 334 340 318 300 273 116 104 130 149 158 160 162
326 328 329 333 336 332 334 346 347 339 349 2 6 323 114 119 132 151 147 141 155 173
333 332 337 331 339 334 343 350 358 355 355 6 8 15 92 121 35 165 154 154 159 170